Hourly Weather Kegeyli

Today, 23 April, Friday

Time Temperature Precipitation Wind Pressure Humidity
00:00 +16°C° 0 mm 5 mps 761 mmHg 14%
01:00 +15°C° 0 mm 5 mps 761 mmHg 16%
02:00 +15°C° 0 mm 5 mps 761 mmHg 17%
03:00 +14°C° 0 mm 5 mps 761 mmHg 18%
04:00 +13°C° 0 mm 5 mps 761 mmHg 20%
05:00 +14°C° 0 mm 6 mps 761 mmHg 20%
06:00 +14°C° 0 mm 7 mps 761 mmHg 20%
07:00 +15°C° 0 mm 8 mps 761 mmHg 21%
08:00 +17°C° 0 mm 8 mps 761 mmHg 18%
09:00 +20°C° 0 mm 8 mps 760 mmHg 14%
10:00 +22°C° 0 mm 8 mps 760 mmHg 11%
11:00 +23°C° 0 mm 7 mps 760 mmHg 10%
12:00 +24°C° 0 mm 6 mps 759 mmHg 9%
13:00 +27°C° 0 mm 6 mps 759 mmHg 8%
14:00 +27°C° 0 mm 5 mps 758 mmHg 8%
15:00 +27°C° 0 mm 5 mps 758 mmHg 8%
16:00 +28°C° 0 mm 5 mps 757 mmHg 8%
17:00 +27°C° 0 mm 4 mps 757 mmHg 9%
18:00 +26°C° 0 mm 4 mps 757 mmHg 9%
19:00 +25°C° 0 mm 4 mps 757 mmHg 10%
20:00 +25°C° 0 mm 3 mps 757 mmHg 10%
21:00 +25°C° 0 mm 3 mps 757 mmHg 9%
22:00 +24°C° 0 mm 3 mps 757 mmHg 9%
23:00 +24°C° 0 mm 3 mps 756 mmHg 10%

Tomorrow, 24 April, Saturday

Time Temperature Precipitation Wind Pressure Humidity
00:00 +22°C° 0 mm 3 mps 756 mmHg 11%
01:00 +21°C° 0 mm 3 mps 756 mmHg 11%
02:00 +21°C° 0 mm 3 mps 756 mmHg 13%
03:00 +20°C° 0 mm 3 mps 755 mmHg 14%
04:00 +19°C° 0 mm 3 mps 755 mmHg 15%
05:00 +20°C° 0 mm 3 mps 755 mmHg 15%
06:00 +21°C° 0 mm 3 mps 755 mmHg 14%
07:00 +23°C° 0 mm 2 mps 756 mmHg 14%
08:00 +24°C° 0 mm 3 mps 756 mmHg 13%
09:00 +26°C° 0 mm 4 mps 756 mmHg 12%
10:00 +27°C° 0 mm 4 mps 756 mmHg 11%
11:00 +28°C° 0 mm 5 mps 756 mmHg 13%
12:00 +28°C° 0 mm 6 mps 756 mmHg 15%
13:00 +28°C° 0 mm 7 mps 756 mmHg 17%
14:00 +28°C° 0 mm 7 mps 756 mmHg 19%
15:00 +27°C° 0 mm 7 mps 756 mmHg 22%
16:00 +26°C° 0 mm 8 mps 757 mmHg 24%
17:00 +24°C° 0 mm 7 mps 757 mmHg 26%
18:00 +22°C° 0 mm 7 mps 757 mmHg 28%
19:00 +20°C° 0 mm 6 mps 757 mmHg 30%
20:00 +19°C° 0 mm 5 mps 758 mmHg 33%
21:00 +19°C° 0 mm 5 mps 758 mmHg 36%
22:00 +18°C° 0 mm 4 mps 758 mmHg 38%
23:00 +17°C° 0 mm 4 mps 758 mmHg 38%

Day after tomorrow, 25 April, Sunday

Time Temperature Precipitation Wind Pressure Humidity
00:00 +17°C° 0 mm 4 mps 758 mmHg 38%
01:00 +15°C° 0 mm 4 mps 758 mmHg 38%
02:00 +15°C° 0 mm 4 mps 758 mmHg 39%
03:00 +15°C° 0 mm 4 mps 758 mmHg 40%
04:00 +14°C° 0 mm 4 mps 758 mmHg 41%
05:00 +15°C° 0 mm 4 mps 759 mmHg 39%
06:00 +16°C° 0 mm 5 mps 759 mmHg 37%
07:00 +17°C° 0 mm 5 mps 759 mmHg 35%
08:00 +20°C° 0 mm 5 mps 759 mmHg 29%
09:00 +22°C° 0 mm 5 mps 759 mmHg 23%
10:00 +25°C° 0 mm 5 mps 759 mmHg 17%
11:00 +26°C° 0 mm 5 mps 759 mmHg 15%
12:00 +28°C° 0 mm 5 mps 759 mmHg 13%
13:00 +29°C° 0 mm 4 mps 759 mmHg 11%
14:00 +29°C° 0 mm 5 mps 758 mmHg 10%
15:00 +29°C° 0 mm 5 mps 758 mmHg 10%
16:00 +30°C° 0 mm 5 mps 758 mmHg 10%
17:00 +28°C° 0 mm 5 mps 758 mmHg 13%
18:00 +26°C° 0 mm 5 mps 758 mmHg 16%
19:00 +25°C° 0 mm 5 mps 758 mmHg 20%
20:00 +23°C° 0 mm 5 mps 758 mmHg 23%
21:00 +22°C° 0 mm 5 mps 758 mmHg 27%
22:00 +20°C° 0 mm 5 mps 758 mmHg 31%
23:00 +20°C° 0 mm 5 mps 758 mmHg 30%

26 April, Monday

Time Temperature Precipitation Wind Pressure Humidity
00:00 +20°C° 0 mm 4 mps 758 mmHg 29%
01:00 +19°C° 0 mm 4 mps 757 mmHg 29%
02:00 +19°C° 0 mm 4 mps 757 mmHg 28%
03:00 +19°C° 0 mm 5 mps 757 mmHg 26%
04:00 +19°C° 0 mm 5 mps 757 mmHg 25%
05:00 +20°C° 0 mm 5 mps 757 mmHg 23%
06:00 +20°C° 0 mm 5 mps 757 mmHg 22%
07:00 +21°C° 0 mm 6 mps 757 mmHg 20%
08:00 +24°C° 0 mm 6 mps 757 mmHg 18%
09:00 +27°C° 0 mm 6 mps 756 mmHg 16%
10:00 +29°C° 0 mm 6 mps 756 mmHg 13%
11:00 +32°C° 0 mm 5 mps 755 mmHg 13%
12:00 +33°C° 0 mm 5 mps 755 mmHg 12%
13:00 +34°C° 0 mm 4 mps 754 mmHg 12%
14:00 +35°C° 0 mm 4 mps 754 mmHg 12%
15:00 +35°C° 0 mm 4 mps 753 mmHg 12%
16:00 +36°C° 0 mm 3 mps 753 mmHg 12%
17:00 +35°C° 0 mm 3 mps 753 mmHg 13%
18:00 +34°C° 0 mm 3 mps 752 mmHg 15%
19:00 +31°C° 0 mm 3 mps 752 mmHg 16%
20:00 +30°C° 0 mm 4 mps 752 mmHg 17%
21:00 +30°C° 0 mm 4 mps 752 mmHg 18%
22:00 +29°C° 0 mm 4 mps 752 mmHg 19%
23:00 +28°C° 0 mm 4 mps 752 mmHg 19%

27 April, Tuesday

Time Temperature Precipitation Wind Pressure Humidity
00:00 +27°C° 0 mm 4 mps 752 mmHg 19%
01:00 +27°C° 0 mm 4 mps 751 mmHg 19%
02:00 +26°C° 0 mm 4 mps 751 mmHg 19%
03:00 +26°C° 0 mm 5 mps 751 mmHg 19%
04:00 +25°C° 0 mm 5 mps 751 mmHg 20%
05:00 +26°C° 0 mm 5 mps 751 mmHg 19%
06:00 +27°C° 0 mm 5 mps 752 mmHg 17%
07:00 +28°C° 0 mm 5 mps 752 mmHg 16%
08:00 +30°C° 0 mm 5 mps 752 mmHg 14%
09:00 +33°C° 0 mm 6 mps 752 mmHg 12%
10:00 +36°C° 0 mm 6 mps 752 mmHg 10%
11:00 +38°C° 0 mm 6 mps 751 mmHg 10%
12:00 +38°C° 0 mm 6 mps 751 mmHg 9%
13:00 +39°C° 0 mm 6 mps 750 mmHg 8%
14:00 +39°C° 0 mm 6 mps 750 mmHg 8%
15:00 +40°C° 0 mm 5 mps 749 mmHg 8%
16:00 +40°C° 0 mm 5 mps 749 mmHg 7%
17:00 +37°C° 0 mm 4 mps 749 mmHg 8%
18:00 +36°C° 0 mm 4 mps 749 mmHg 9%
19:00 +34°C° 0 mm 3 mps 749 mmHg 10%
20:00 +33°C° 0 mm 4 mps 749 mmHg 10%
21:00 +32°C° 0 mm 4 mps 749 mmHg 11%
22:00 +30°C° 0 mm 5 mps 749 mmHg 11%
23:00 +30°C° 0 mm 5 mps 749 mmHg 12%

28 April, Wednesday

Time Temperature Precipitation Wind Pressure Humidity
00:00 +29°C° 0 mm 5 mps 749 mmHg 12%
01:00 +28°C° 0 mm 5 mps 749 mmHg 13%
02:00 +27°C° 0 mm 5 mps 749 mmHg 20%
03:00 +25°C° 0 mm 5 mps 749 mmHg 27%
04:00 +23°C° 0 mm 5 mps 750 mmHg 34%
05:00 +23°C° 0 mm 6 mps 750 mmHg 37%
06:00 +23°C° 0 mm 6 mps 751 mmHg 40%
07:00 +23°C° 0 mm 7 mps 751 mmHg 43%
08:00 +26°C° 0 mm 7 mps 751 mmHg 40%
09:00 +27°C° 0 mm 6 mps 752 mmHg 36%
10:00 +29°C° 0 mm 6 mps 752 mmHg 33%
11:00 +29°C° 0 mm 7 mps 752 mmHg 32%
12:00 +29°C° 0 mm 8 mps 752 mmHg 32%
13:00 +29°C° 0 mm 9 mps 753 mmHg 31%
14:00 +27°C° 0 mm 8 mps 753 mmHg 38%
15:00 +24°C° 0 mm 8 mps 754 mmHg 45%
16:00 +22°C° 0 mm 7 mps 755 mmHg 51%
17:00 +21°C° 0.2 mm 7 mps 755 mmHg 54%
18:00 +21°C° 0.2 mm 6 mps 755 mmHg 58%
19:00 +20°C° 0.2 mm 5 mps 755 mmHg 61%
20:00 +20°C° 0 mm 5 mps 755 mmHg 57%
21:00 +20°C° 0 mm 5 mps 756 mmHg 52%
22:00 +20°C° 0 mm 4 mps 756 mmHg 48%
23:00 +20°C° 0 mm 5 mps 756 mmHg 44%
Show more